Location: Zagreb
(45.8000°N, 16.0000°E)
Time: 19:21:28
(UTC+02:00)

A-11 Canister half - Pass Details

Date: 18 August 2022
Orbit: 1524 x 1684 km, 47.3° (Epoch: 05 October)

Event Time Altitude Azimuth Distance (km) Brightness Sun altitude
Rises 12:22:42 0° 291° (WNW) 4,935 11.4 56.3°
Reaches altitude 10° 12:26:48 10° 278° (W) 3,930 11.1 56.5°
Maximum altitude 12:33:51 22° 233° (SW) 3,031 11.1 56.8°
Drops below altitude 10° 12:40:48 10° 187° (S) 3,842 11.8 57.0°
Sets 12:44:47 0° 173° (S) 4,797 12.1 57.1°
